Résultats de la compétition "Championnat d'Alsace moyenne distance" du 15-03-2009 organisée par le club 6701
     
  Télécharger le fichier CSV.  
     
     

 Circuit "Circuit A"

Licence Nom Prénom Temps CN
précédent
Score sur
la course
Différence
1518MULLERMarc0:33:0666626048-614
18689MARTINFalk0:34:48N/A5752N/A
15299MELINARDLionel0:36:2647935494+701
1911MEYERKirian0:36:3262695479-790
12240BROUARDLoic0:36:40N/A5459N/A
10906COLINFranck0:38:2458885213-675
4445POIRSONThomas0:38:25N/A5211N/A
11430BERNAUERChristophe0:38:4751895161-28
2796LEGALLAISJ-Luc0:39:3954045048-356
2379BILQUEZEric0:40:2145044961+457
1910MEYERJ-Marc0:40:2748934949+56
12158PEYRONLudovic0:40:33N/A4936N/A
2372DIETSCHBernard0:40:4652934910-383
13237POULAINAntoine0:41:4449004796-104
4770HALLOUARDAndre0:43:09N/A4639N/A
10998RENAUDBernard0:43:4445244577+53
16260SCHNEBELENJulien0:44:4417994475+2676
18665SOLTYSIAKCezary0:44:55N/A4457N/A
11513HAURYGilles0:45:2552054407-798
5640HUEBERFrancois0:46:5248994271-628
17647STEINThomas0:47:35N/A4207N/A
8376CHARPENTIEROlivier0:48:06N/A4162N/A
19024DALIBARDNicolas0:48:3941614115-46
20048HANAUERJean Marie0:49:0738994075+176
11875FRANCOISGerald0:49:4045604030-530
302BAGUEREYBaptiste0:50:0645783995-583
2894LEBIHANMarcel0:50:1947293978-751
2369BRELLMANNHubert0:51:2150233898-1125
10901RAVENELPhilippe0:51:5643463854-492
2376MAKOVICKALibor0:52:4145473800-747
16234DOLCIMathias0:52:5249663786-1180
12896BOTOJeremi0:53:21N/A3752N/A
2370CHARLOTPatrick0:55:0337843636-148
320BAGUEREYGilles0:55:2040333618-415
4586MITTERANDBruno0:58:0037313451-280
1906MERTZAndre0:59:0744623386-1076
15858CASASSASAntoine1:00:2232063316+110
3108GANZITTIAlexandre1:00:2645553312-1243
7004PHILIPPERenaud1:00:4645043294-1210
1897FRICKBernard1:01:1136963272-424
2386SUTTERJean1:03:4430103141+131
3905JOUFFROYMichel1:04:5133453087-258
14223FISCHERGuy1:05:3035613056-505
2368BENACEKVaclav1:05:3536333052-581
3267PETIT-JEANLeon1:11:19N/A2807N/A
10428PHILIPPEEudes1:11:3444722797-1675
3320PIERSONJ-Luc1:11:5534272783-644
15297BOEHMYves1:14:5924292670+241
19680GOETTMANNJean-Pierre1:15:4929022640-262
13693HAURYMarc1:16:0127552633-122
20872KOBLERThierry1:16:18N/A2623N/A
2552KNOBLOCHFrancis1:16:5725902601+11
1558CARUYves1:25:10N/A2350N/A
13636KORCHAKTom1:25:4618542334+480
370WOEHRLEGilbert1:27:4526902281-409
7900DELCOURTJ-Pierre1:33:0424202151-269
19893HOLWEGPatrice1:40:36N/A1990N/A
20219BEAUDEQUINMaxime1:41:1728401976-864
2547DESAINTJANClaude1:42:0027561962-794
5533THIEBAULTJ-Philippe2:05:1333791599-1780
21470TAMUZSKristapsN/AN/A0N/A

  Indice de confiance du circuit (moyenne des différences entre CN et score sur la course des 3 à 10 premiers) : 215




 Circuit "Circuit B"

Licence Nom Prénom Temps CN
précédent
Score sur
la course
Différence
5639HUEBERDiane0:44:2245234975+452
13637KORCHAKLena0:51:1240704311+241
2378MAKOVICKAVeronique0:51:4842264261+35
14216VILLARIsabelle0:54:4638964030+134
16130ANCELJulie0:57:5436763812+136
13692HAURYEvelyne1:01:3142543588-666
12078CASTERANMarie1:02:17N/A3544N/A
2375MAKOVICKAEdwige1:02:5536393508-131
10903RAVENELManon1:04:1735723433-139
1909MEYERCorinne1:04:2933583423+65
13688FRANCOISAline1:05:3033123370+58
11507LEBIHANMartine1:05:3835323363-169
363THIERRY-FISCHERChri1:11:1331733099-74
9509BASTIENChantal1:12:3028213044+223
13875HOTHANHChristine1:13:31N/A3002N/A
10902RAVENELVeronique1:14:3431762960-216
2557VOGTChristiane1:15:0936222937-685
7574OUDINM-Reine1:21:2130922713-379
20483MEYERCatherine1:24:1717282619+891
2387SUTTEROdile1:34:3226602335-325
15296GREVETClaudie1:35:5321812302+121
340FISCHERM-Dominique1:53:5419711938-33
2546DESAINTJANAlice1:55:5621991904-295
20882FERLETBénédicte1:57:07N/A1884N/A
10907COLINCarine2:21:3515011559+58
13114BERNAUERLaurenceN/A29700-2970
2553KNOBLOCHMicheleN/A18320-1832

  Indice de confiance du circuit (moyenne des différences entre CN et score sur la course des 3 à 10 premiers) : 194




 Circuit "Circuit C"

Licence Nom Prénom Temps CN
précédent
Score sur
la course
Différence
7260SUTTEROlivier0:26:4659135958+45
5638TARDYVictor0:34:1951574647-510
6753HUEBERNicole0:37:1548194281-538
7259SUTTERAriane0:38:0742374184-53
17713KAUFFMANNBaptiste0:39:0442164082-134
19028SCHMIDT-MORGENROTHJacques0:40:5940303891-139
6779MAKOVICKAElsa0:43:1234963692+196
18467GOETTMANNPierre-Aimé0:43:2534953673+178
13478KORCHAKNicole0:44:5940623545-517
20407FERNANDEZAlexia0:45:52N/A3477N/A
11511BRELLMANNMichel0:45:5734443471+27
10904RAVENELFanny0:48:0338583319-539
10909COLINCamille0:52:1426833053+370
8639BILQUEZHugo0:54:5044232908-1515
21179STOLLAurore1:16:27N/A2086N/A
8092PETIT-JEANMarie1:19:46N/A1999N/A
1916RUHLMANNJ-PierreN/A35570-3557

  Indice de confiance du circuit (moyenne des différences entre CN et score sur la course des 3 à 10 premiers) : 354




 Circuit "Circuit D"

Licence Nom Prénom Temps CN
précédent
Score sur
la course
Différence
13638KORCHAKNathalie0:43:2227512959+208
18468GOETTMANNThomas0:46:1829522771-181
19219RIETHMULLERMathilde0:50:0324492564+115
20861KAUFFMANNJoseph0:50:36N/A2536N/A
19413HANAUERSébastien0:51:3328802489-391
11508LEBIHANBarbara0:52:4625042432-72
18542RUDKIEWICZMartin0:53:2320752404+329
13143DENNYJonathan0:56:1315512282+731
21432MULLERArnaud1:07:45N/A1894N/A
21471HARTMANNTanguy1:10:33N/A1819N/A
20449VIOLETTEVincent1:14:37N/A1720N/A

  Indice de confiance du circuit (moyenne des différences entre CN et score sur la course des 3 à 10 premiers) : 338




 Circuit "Circuit E"

Licence Nom Prénom Temps CN
précédent
Score sur
la course
Différence
18304BEAUDEUXThéo0:24:3032642945-319
13477DIETSCHJoel0:30:4725382344-194
14215VILLARZoe0:30:5019722340+368
13639KORCHAKEmilie0:34:3221902089-101
13872JOUFFROYAxel0:34:4919052072+167
10910COLINLeo0:35:3419162029+113
12563CARULaura0:37:23N/A1930N/A

  Indice de confiance du circuit (moyenne des différences entre CN et score sur la course des 3 à 10 premiers) : 338






 Retour